Regional Weather Roundup
Issued by NWS Kansas City/Pleasant Hill, MO

Home | Current Version | Previous Version | Graphics & Text | Print | Product List | Glossary Off
Versions: 1 2 3 4 5 6 7 8 9 10 11 12 13 14 15 16 17 18 19 20 21 22 23 24 25 26 27 28

000
ASUS43 KEAX 211510
RWREAX

WEATHER ROUNDUP FOR EASTERN KANSAS AND NORTHWEST MISSOURI
NATIONAL WEATHER SERVICE KANSAS CITY/PLEASANT HILL MO
900 AM CST TUE FEB 21 2017

KSZ040-057-103>105-MOZ028-029-037-043-211600-
...KANSAS CITY METROPOLITAN AREA...

CITY           SKY/WX    TMP DP  RH WIND       PRES   REMARKS
K.C. INTL      SUNNY     51  45  79 N8        29.99R
K.C. DOWNTOWN  MOSUNNY   52  45  77 CALM      29.98R
LEES SUMMIT    PTSUNNY   50  47  89 N10       29.98R
OLATHE - IXD   MOSUNNY   49  46  90 N6        29.99R
OLATHE - OJC   MOSUNNY   51  46  83 N10       29.98R
LAWRENCE       SUNNY     50  45  83 W8        30.00S

$$

MOZ001>008-011>017-020>025-030>033-038>040-044>046-053-054-211600-
...NORTHERN AND CENTRAL MISSOURI...

CITY           SKY/WX    TMP DP  RH WIND       PRES   REMARKS
ST. JOSEPH     SUNNY     47  45  93 N5        30.01R
WARRENSBURG    CLOUDY    54  46  76 N8        29.96R
WHITEMAN AFB   PTSUNNY   55  55 100 NE7       29.94R
CLINTON        CLOUDY    55  55 100 NE8       29.94S
SEDALIA        PTSUNNY   57  53  86 N7        29.95S
WARSAW         NOT AVBL
CHILLICOTHE      N/A     51  46  83 N6        30.00R
KIRKSVILLE     MOSUNNY   53  45  74 NE9       29.97R

$$

MOZ041-047>049-056>058-063>065-088>090-097-211600-
...EASTERN AND SOUTHERN MISSOURI...

CITY           SKY/WX    TMP DP  RH WIND       PRES   REMARKS
ST. LOUIS INTL LGT RAIN  61  59  93 E8        29.93R FOG
SPIRIT OF STL  LGT RAIN  60  60 100 E6        29.91S FOG
COLUMBIA       CLOUDY    58  56  93 N10       29.93F
JEFFERSON CITY CLOUDY    59  55  87 CALM      29.92S
ROLLA          CLOUDY    58  58 100 NE6       29.90R
OSAGE BEACH    CLOUDY    58  56  93 VRB3      29.93R
SPRINGFIELD    PTSUNNY   58  56  93 N8        29.91S
BRANSON        CLOUDY    55  55 100 NW8       29.91S
JOPLIN         PTSUNNY   53  53 100 N3        29.95R
WEST PLAINS    CLOUDY    58  57  97 E8        29.90R FOG

$$

IAZ060-094-KSZ022-034>040-054-083-096-NEZ052-066-093-211600-
...KANSAS...SOUTHEAST NEBRASKA AND IOWA...

CITY           SKY/WX    TMP DP  RH WIND       PRES   REMARKS
TOPEKA         SUNNY     48  42  80 W3        30.01R
MANHATTAN      SUNNY     41  39  93 S3        30.05R
EMPORIA        SUNNY     48  43  82 NW6       30.01R
CHANUTE        SUNNY     51  47  86 N8        29.98R
WICHITA        MOSUNNY   48  39  71 NW13      30.03R
OMAHA          MOSUNNY   40  38  93 S6        30.00F
LINCOLN        SUNNY     41  38  89 S6        30.01F
FALLS CITY     SUNNY     41  39  93 NW5       30.02R
LAMONI         HAZE      50  45  83 NE3       29.99R VSB<1/4
DES MOINES     MOSUNNY   45  42  89 S6        29.98S

$$





USA.gov is the U.S. government's official web portal to all federal, state and local government web resources and services.